Find OneWeb SL0309

NORAD ID: 49095 Int'l Des: 2021-075 Owner: ONEWEBN Country: UK Constellation: oneweb operational
LEOCIRCULARPOLARONEWEB_TYPE

Live Position

Loading 3D Globe...

About OneWeb SL0309

Description loading...

Upcoming Passes

Passes for default location (London). Set your location on the main map for personalized predictions.

Altitude History

Loading altitude history...

Two-Line Element Set

1 49095U 21075W 26124.12198178 .00000095 00000-0 21150-3 0 9990
2 49095 87.9173 14.6212 0001405 75.7396 284.3891 13.17648344227778
Epoch: May 4, 2026 • Age: 11 hours

Current Status

Altitude 1195.4 km
Velocity 7.26 km/s
Sub-Earth Point 10.17°N, 56.27°W
Launch Date Aug 21, 2021
Age 4.7 years
Type internet

Technical Details

Classification Payload
Mass 148.00 kg
Dry Mass 140.00 kg
Total Mass 148.00 kg
Length 1.30 m
Diameter 1.00 m
Span 5.00 m
Shape Trapezoid+2 pan
Manufacturer ONEWUS
Bus Type ARROW
Phase Status In Orbit
Owner/State ONEWEBN/UK

Most Searched